Location: Kawakawa
(35.3830°S, 174.0670°E)
Time: 18:37:09
(UTC+13:00)

Courier 1B Rocket - Visible Passes

Search period start: 14 December 2019 00:00
Search period end: 24 December 2019 00:00
Orbit: 920 x 1202 km, 28.2° (Epoch: 12 December)

Date Brightness Start Highest point End Pass type
(mag) Time Alt. Az. Time Alt. Az. Time Alt. Az.
14 Dec 5.9 21:49:02 10° W 21:55:47 41° NNW 22:00:27 20° NE visible
14 Dec 6.9 23:43:25 10° WNW 23:46:48 19° NW 23:46:48 19° NW visible
15 Dec 6.3 22:41:48 10° WNW 22:47:52 27° NNW 22:49:15 26° N visible
16 Dec 6.2 21:40:30 10° WNW 21:46:49 33° NNW 21:51:43 17° NE visible
16 Dec 7.2 23:35:51 10° WNW 23:38:03 14° NW 23:38:03 14° NW visible
17 Dec 6.7 22:33:43 10° WNW 22:38:49 20° NNW 22:40:33 19° N visible
18 Dec 6.5 21:32:09 10° WNW 21:37:51 26° NNW 21:43:04 12° NNE visible
19 Dec 7.1 22:26:22 10° WNW 22:29:47 14° NNW 22:31:58 12° N visible
20 Dec 6.9 21:24:11 10° WNW 21:28:51 19° NNW 21:33:43 10° NNE visible
22 Dec 7.2 21:17:08 10° NW 21:19:51 12° NNW 21:22:37 10° N visible
